Das Wetter in  D-61279 Heinzenberg / Taunus





Wetter Minimum- & Maximum-Werte im Februar 2017

Standort: Heinzenberg / Taunus - Höhe 297 m         8° 24' 1" Ost 50° 21' 51" Nord
(   3-stündige Aktualisierung    letzte Aktualisierung um 20:46 am 28.02.2017  )


Messgrösse

Minimum

Maximum

Durchschnitt

Temperatur West /
Luftfeuchte West
Anklicken für Monats-Diagramm

-4,7 °C

08:13
09.02.2017

44 %

15:22
14.02.2017

15,6 °C

13:59
16.02.2017

93 %

07:49
03.02.2017

Temp

3,8 °C

Feuchte

79 %

Temperatur Ost /
Luftfeuchte Ost
Anklicken für Monats-Diagramm

-4,5 °C

08:13
09.02.2017

--

--
--

15,2 °C

16:08
15.02.2017

--

--
--

4,0 °C

--

Luftdruck Anklicken für Monats-Diagramm

989,7 hPa

17:25
28.02.2017

1035,4 hPa

07:28
15.02.2017

1016,5 hPa

Taupunkt

-7,5 °C

07:37
14.02.2017

8,0 °C

11:39
21.02.2017

0,5 °C

Windchill
( gefühlte Temperatur )

-12,8 °C

01:12
24.02.2017

15,6 °C

13:59
16.02.2017

1,1 °C

Windgeschwindigkeit /
Windrichtung
Anklicken für Monats-Diagramm

---

64,2 km/h / W

20:26
23.02.2017

8,5 km/h
W

Helligkeit /
Sonnenschein
Anklicken für Monats-Diagramm
Anklicken für Monats-Diagramm

Sonnenschein:

79:29 Stunden

Max: 8:40 Std am
14.02.2017

85,4 klux

13:24
27.02.2017

18,2 klux

Solarstrahlung Anklicken für Monats-Diagramm

---

584 W/m²

13:24
27.02.2017

137 W/m²

Regenmenge
    Februar 2017
Anklicken für Monats-Diagramm

Insgesamt 33,7 l/m²

in 80:06 Stunden
an 15 Tagen

6,7 l/m²

21:59
27.02.2017

Gesamtmenge

33,7 l/m²

Regen-Tage
    Februar 2017
Anklicken für Monats-Diagramm

>   0 mm/Tag

>   2 mm/Tag

>   5 mm/Tag

> 10 mm/Tag

> 20 mm/Tag

15 Tage     
6 Tage     
2 Tage     
0 Tage     
0 Tage     

Eisige Tage Februar 2017 / 2016

Tmin ≤ -10°C     

0 Tage

/

0 Tage

Eistage Februar 2017 / 2016

Tmax <     0°C     

  1 Tag

/

0 Tage

Frosttage Februar 2017 / 2016

Tmin ≤     0°C     

14 Tage

/

13 Tage

Kalte Tage Februar 2017 / 2016

Tmax <   10°C     

21 Tage

/

23 Tage

Warme Tage Februar 2017 / 2016

Tmax ≥   20°C     

0 Tage

/

0 Tage

Sommertage Februar 2017 / 2016

Tmax ≥   25°C     

0 Tage

/

0 Tage

Heisse Tage Februar 2017 / 2016

Tmax ≥   30°C     

0 Tage

/

0 Tage


Monatsdiagramm Februar 2017

Die Kurven zeigen den Durchschnittswert des jeweiligen Tages an


Wetter-Monatsübersicht Februar 2017
Datum
  Temperatur
   Luftdruck
   Wind
  Regen
   Luftfeuchte
   Helligkeit

Sonnen-
schein

Ø
Temp.

Min.
Temp.

Max.
Temp.

Ø
Luftdruck

Min.
Luftdruck

Max.
Luftdruck

Ø-Geschw.
Haupt-Richtg.

Max.
Wind

Menge /
Dauer

Ø
Feuchte

Min.
Feuchte

Max.
Feuchte

Ø
Helligkeit

Max.
Helligkeit

1.
Februar
2,1 °C1,1 °C
07:08
5,2 °C
14:13
1017,2 hPa1013,6 hPa
23:43
1019,1 hPa
07:53
7,8 km/h
O-SO
28,2 km/h
11:18  
---
80 %71 %
14:23
85 %
00:03
13,7 klux53,0 klux
13:38
1:45 Std 
2.
Februar
3,6 °C1,0 °C
23:59
7,5 °C
13:38
1010,3 hPa1006,3 hPa
22:08
1014,7 hPa
00:03
0,6 km/h
O-SO
10,5 km/h
00:08  
0,3 l/m²
2:50 Stunden
88 %82 %
00:03
92 %
13:23
12,8 klux58,8 klux
13:13
1:15 Std 
3.
Februar
4,8 °C0,3 °C
01:09
8,8 °C
13:59
1005,2 hPa1003,0 hPa
23:20
1006,7 hPa
01:09
4,9 km/h
W-SW
30,0 km/h
23:25  
2,7 l/m²
6:12 Stunden
89 %82 %
18:29
93 %
07:49
11,4 klux44,4 klux
10:34
40 Min 
4.
Februar
5,1 °C1,7 °C
08:30
6,8 °C
14:15
1000,8 hPa997,7 hPa
16:40
1004,1 hPa
06:40
7,8 km/h
O-SO
34,3 km/h
03:20  
1,7 l/m²
7:10 Stunden
83 %74 %
14:10
90 %
23:36
11,0 klux28,2 klux
10:50
1:00 Std 
5.
Februar
3,9 °C0,8 °C
08:51
8,2 °C
14:56
1003,2 hPa1001,0 hPa
00:21
1007,6 hPa
23:57
4,8 km/h
W
31,8 km/h
00:36  
0,9 l/m²
2:05 Stunden
84 %70 %
14:01
91 %
01:26
21,0 klux54,8 klux
13:31
4:45 Std 
6.
Februar
1,6 °C-1,4 °C
07:37
7,6 °C
14:27
1015,8 hPa1007,6 hPa
00:02
1020,2 hPa
22:23
0,1 km/h
W-NW
5,2 km/h
13:47  
---
83 %69 %
15:22
90 %
09:52
18,0 klux51,9 klux
14:12
2:35 Std 
7.
Februar
1,7 °C-1,3 °C
02:08
5,4 °C
13:53
1017,7 hPa1016,4 hPa
13:53
1020,4 hPa
00:58
1,0 km/h
O-SO
13,6 km/h
13:43  
---
83 %76 %
14:38
89 %
08:23
10,5 klux30,7 klux
12:28
--- 
8.
Februar
0,5 °C-3,0 °C
23:53
6,0 °C
14:37
1022,9 hPa1019,2 hPa
00:03
1027,9 hPa
23:53
0,5 km/h
O-NO
8,4 km/h
13:12  
---
81 %67 %
15:42
88 %
08:52
20,4 klux44,8 klux
14:27
4:35 Std 
9.
Februar
-1,7 °C-4,7 °C
08:13
3,3 °C
14:13
1026,2 hPa1023,5 hPa
20:18
1028,1 hPa
08:13
1,2 km/h
O
16,6 km/h
14:13  
---
77 %66 %
16:38
85 %
07:33
21,9 klux55,6 klux
13:13
3:50 Std 
10.
Februar
-1,3 °C-2,4 °C
23:49
-0,2 °C
14:44
1021,3 hPa1020,3 hPa
14:44
1023,6 hPa
00:09
0,5 km/h
O
8,0 km/h
00:39  
---
78 %75 %
00:09
80 %
09:19
4,0 klux8,9 klux
14:29
--- 
11.
Februar
1,5 °C-2,9 °C
00:39
7,4 °C
14:34
1019,7 hPa1018,2 hPa
14:34
1021,6 hPa
00:59
1,8 km/h
O-SO
20,1 km/h
14:34  
---
20 Minuten
79 %66 %
14:39
86 %
08:49
18,50 klux68,40 klux
12:24
2:20 Std 
12.
Februar
1,6 °C-0,7 °C
22:36
6,9 °C
15:25
1025,7 hPa1020,0 hPa
00:25
1029,7 hPa
22:36
2,0 km/h
O-SO
18,3 km/h
09:10  
---
78 %67 %
15:25
83 %
22:51
22,0 klux56,2 klux
12:50
4:14 Std 
13.
Februar
2,9 °C-1,4 °C
23:47
11,5 °C
14:56
1028,7 hPa1026,0 hPa
16:11
1030,6 hPa
02:41
3,8 km/h
O
22,6 km/h
16:16  
---
72 %50 %
16:16
83 %
00:01
29,0 klux56,9 klux
13:06
6:35 Std 
14.
Februar
1,6 °C-4,6 °C
07:37
12,5 °C
15:52
1030,1 hPa1027,6 hPa
02:02
1034,0 hPa
23:58
1,8 km/h
SO
18,5 km/h
11:07  
---
67 %44 %
15:22
82 %
08:42
33,1 klux56,7 klux
12:32
8:40 Std 
15.
Februar
2,2 °C-4,4 °C
07:28
14,8 °C
16:08
1033,6 hPa1030,9 hPa
16:48
1035,4 hPa
07:28
0,6 km/h
W-NW
5,9 km/h
01:28  
---
71 %48 %
15:38
84 %
09:53
32,6 klux57,3 klux
12:48
8:40 Std 
16.
Februar
3,8 °C-2,3 °C
07:44
15,6 °C
13:59
1030,1 hPa1026,5 hPa
13:59
1033,9 hPa
02:49
1,1 km/h
W-NW
12,8 km/h
14:19  
5,0 l/m²
3:55 Stunden
81 %59 %
14:09
90 %
23:50
24,6 klux74,6 klux
12:24
4:40 Std 
17.
Februar
4,9 °C3,0 °C
08:00
6,1 °C
12:05
1025,0 hPa1023,6 hPa
15:55
1026,9 hPa
23:41
6,5 km/h
W
24,1 km/h
14:10  
1,7 l/m²
5:31 Stunden
90 %87 %
11:50
91 %
06:45
9,6 klux26,4 klux
11:55
10 Min 
18.
Februar
4,5 °C0,3 °C
23:57
6,3 °C
12:51
1026,3 hPa1025,6 hPa
14:11
1027,0 hPa
07:56
0,6 km/h
W-NW
8,9 km/h
23:22  
---
83 %72 %
15:36
91 %
00:01
8,2 klux20,9 klux
12:41
--- 
19.
Februar
2,2 °C-3,8 °C
07:47
8,0 °C
14:52
1022,7 hPa1019,3 hPa
16:52
1026,5 hPa
00:12
5,2 km/h
W
25,3 km/h
12:17  
0,8 l/m²
3:26 Stunden
82 %68 %
15:22
90 %
11:07
17,8 klux70,7 klux
12:37
1:30 Std 
20.
Februar
6,7 °C5,2 °C
00:03
8,7 °C
23:49
1017,9 hPa1013,9 hPa
23:49
1021,6 hPa
00:23
15,7 km/h
W-SW
31,1 km/h
12:28  
1,2 l/m²
6:15 Stunden
89 %84 %
13:13
92 %
20:23
8,1 klux23,4 klux
10:58
--- 
21.
Februar
8,7 °C7,8 °C
08:44
10,2 °C
12:34
1014,0 hPa1011,8 hPa
04:29
1015,1 hPa
19:59
19,1 km/h
W
38,9 km/h
03:14  
2,9 l/m²
11:10 Stunden
90 %81 %
13:39
93 %
05:09
12,1 klux42,8 klux
12:24
15 Min 
22.
Februar
9,0 °C8,1 °C
10:15
9,6 °C
05:15
1008,3 hPa1005,5 hPa
16:10
1012,9 hPa
00:00
32,3 km/h
W
57,7 km/h
16:30  
3,3 l/m²
12:06 Stunden
87 %79 %
16:05
92 %
03:50
5,8 klux15,5 klux
12:55
--- 
23.
Februar
7,9 °C5,2 °C
20:36
9,2 °C
13:41
999,9 hPa994,2 hPa
17:21
1006,7 hPa
00:01
35,8 km/h
W
64,2 km/h
20:26  
1,5 l/m²
5:06 Stunden
78 %66 %
22:57
87 %
00:01
8,8 klux35,6 klux
12:36
--- 
24.
Februar
3,7 °C-0,7 °C
23:58
8,6 °C
14:22
1010,5 hPa996,6 hPa
00:02
1020,3 hPa
23:58
20,7 km/h
W
62,3 km/h
00:17  
2,0 l/m²
5:10 Stunden
73 %49 %
16:37
89 %
06:32
34,4 klux77,9 klux
12:07
6:30 Std 
25.
Februar
2,9 °C-3,4 °C
07:28
9,8 °C
14:13
1020,0 hPa1016,3 hPa
23:34
1022,8 hPa
07:28
8,2 km/h
W-SW
38,8 km/h
15:18  
---
71 %55 %
13:58
88 %
10:18
34,3 klux70,1 klux
13:48
7:20 Std 
26.
Februar
8,5 °C4,5 °C
02:59
14,9 °C
15:04
1012,9 hPa1010,2 hPa
15:29
1016,4 hPa
00:54
14,2 km/h
W-SW
33,6 km/h
21:14  
---
62 %45 %
15:04
72 %
22:14
30,9 klux83,8 klux
13:39
5:05 Std 
27.
Februar
9,8 °C6,0 °C
23:35
13,9 °C
14:19
1002,3 hPa991,8 hPa
20:29
1010,8 hPa
01:34
18,3 km/h
W-SW
59,7 km/h
20:39  
6,7 l/m²
3:15 Stunden
67 %52 %
14:19
86 %
22:55
18,3 klux85,4 klux
13:24
1:40 Std 
28.
Februar
4,4 °C1,9 °C
22:36
7,1 °C
13:15
993,7 hPa989,7 hPa
17:25
998,2 hPa
23:01
21,2 km/h
W-SW
43,2 km/h
09:40  
3,0 l/m²
5:35 Stunden
78 %62 %
13:10
88 %
20:00
16,7 klux81,0 klux
11:30
1:25 Std 



Februar
2017

Temperatur

  

Luftdruck

  

Wind

  

Regen

  

Luftfeuchte

  

Helligkeit

Sonnen-
schein

Ø

Min

Max

Ø

Min

Max

Ø

Max

Max

Ø

Min

Max

Ø

Max

Max

3,8 °C

-4,7 °C

08:13 Uhr
09.02.2017

15,6 °C

13:59 Uhr
16.02.2017

1016,5 hPa

989,7 hPa

17:25 Uhr
28.02.2017

1035,4 hPa

07:28 Uhr
15.02.2017

8,5 km/h

W

64,2 km/h

20:26 Uhr
23.02.2017

6,7 l/m²

3:15 Stunden
27.02.2017

79 %

44 %

15:22 Uhr
14.02.2017

93 %

07:49 Uhr
03.02.2017

18,2 klux

85,4 klux

13:24 Uhr
27.02.2017

8:40 Std

am
14.02.2017

Gesamt

Gesamt

33,7 l/m²

15 Tage
80:06 h

79:29 Std


Wetter-Diagramme Februar 2017     Heinzenberg / Taunus   
TemperaturLuftfeuchte
SolarstrahlungLuftdruck
HelligkeitSonnenschein
RegenmengeRegendauer
Wind-GeschwindigkeitWind-Richtung